STARLINK-30366, 57749

Orbit data source: Space-Track

STARLINK-30366, 57749 is a payload satellite owned by SpaceX/Seattle (US) in LEO that was launched on Fri, 01 Sep 2023 UTC via an FALCON 9 launch vehicle from the Air Force Eastern Test Range (AFETR). Payload-class satellites include a variety of spacecraft equipped with specific instruments for various scientific and technological missions. These include communications satellites like Starlink; space stations such as the ISS; scientific satellites like the Hubble; Earth observation satellites from companies like Planet Labs, Umbra, and HawkEye 360; GPS; miniature CubeSats for education and research; and military/defense satellites.

Loading next visibility...
Identifier
57749, 2023-131T
Orbit
LEO
Country
Flag of USUS
Related business
Manufacturer
SpaceX/Seattle
Mission
Operational Commercial Communications
Bus & Motor
STARLINK V2M, Unknown motor
Mass
730 kg wet, ~700 kg dry
Launch date (UTC)
2023-09-01 (3 years ago)
Launch vehicle
FALCON 9
Launch site
Air Force Eastern Test Range (AFETR)
Object type
Payload
Rocket body
Debris
Shape & HBR
Box + 2 Pan, 17.7 m
Radar Cross Section
33.884 m², Large (>1 m²)

Expand to show TLE details & history
Last TLE update: 2 days ago

TLE from 2 days ago
0 STARLINK-30366
1 57749U 23131T   26171.40757682  .00001721  00000-0  75596-4 0  9995
2 57749  43.0008 315.9623 0001872 266.5434  93.5203 15.25915710155588
Epoch: 2026-06-20T09:46Z
TLE epoch observation values (Epoch: 2026-06-20T09:46:54.637Z)
Latitude
-0°
Longitude
-99.388°
Altitude
487.892 km
Speed
7.623 km/s
True Right ascension
21h 03m 50s
True Declination
0° 00' 00"
Sunlit
Object was in full shadow at epoch
Visualization orbit readout
Latitude
Unknown
Longitude
Unknown
Altitude
Unknown
Speed
Unknown
Apparent Right ascension
Unknown
Apparent Declination
Unknown
Sunlit
N/A
Visualization observer readout
Local Sidereal Time
21:23:55
Azimuth
Unknown
Elevation
Unknown
Doppler factor
Unknown
Orbital elements
Apogee altitude
491.266 km
Perigee altitude
488.695 km
Semi-major axis
6,868.118 km
Eccentricity
0.00019
Inclination
43.0008°
RAAN
315.9623°
Arg. of periapsis
266.5434°
True anomaly
93.54171°
Mean anomaly
93.5203°
Eccentric anomaly
93.53101°
Mean motion
3.81317 °/min
Orbital period
94.41 mins
BSTAR
0.000075596
Loading maneuver chart data...
Computing Atmospheric mass density...
Loading historical data...
Loading historical data...
Loading historical data...
Loading historical data...
Loading historical data...
Loading historical data...
Loading historical data...

Documentation

Showing up to 5 results
|